Regional Weather Roundup
Issued by NWS Burlington, VT

Home | Current Version | Previous Version | Text Only | Print | Product List | Glossary On
Versions: 1 2 3 4 5 6 7 8 9 10 11 12 13 14 15 16 17 18 19 20 21 22 23 24 25 26 27 28 29 30 31 32 33 34 35 36 37 38 39 40 41 42 43 44 45 46 47 48 49 50
000
ASUS41 KBTV 250930
RWRBTV
VERMONT REGIONAL WEATHER ROUNDUP
NATIONAL WEATHER SERVICE BURLINGTON VT
500 AM EDT WED MAY 25 2016

NOTE: "FAIR" INDICATES FEW OR NO CLOUDS BELOW 12,000 FEET WITH NO
SIGNIFICANT WEATHER AND/OR OBSTRUCTIONS TO VISIBILITY.

* THESE REPORTS ARE NOT UNDER NWS QUALITY CONTROL AND/OR DO NOT
  REPORT WEATHER SUCH AS PRECIPITATION AND FOG.

VTZ001>019-251000-
_____VERMONT_____


CITY           SKY/WX    TMP DP  RH WIND       PRES   REMARKS
BURLINGTON     FAIR      58  51  78 S5        29.93R
MONTPELIER     FOG       51  51 100 CALM      29.98S VSB 1/4
MORRISVILLE    FOG       52  51  97 CALM      29.96R VSB 1/4
ST. JOHNSBURY*   N/A     55  53  93 MISG      29.94S
LYNDONVILLE*   FOG       55  55  97 S3        29.98R VSB 1/4
MIDDLEBURY*    FAIR      55  51  87 S5        29.95R
RUTLAND*       CLOUDY    50  50 100 SE6       29.99R FOG
SPRINGFIELD    FOG       54  53  97 S3        29.98R VSB 1
HIGHGATE*      FAIR      58  52  79 S7        29.91R
NEWPORT*       FAIR      53  52  96 S6        29.94S
BENNINGTON     FOG       47  46  97 CALM      30.00R VSB 1/4
MT. MANSFIELD*   N/A     57 N/A N/A NW22G36     N/A

_____LAKE CHAMPLAIN_____


CITY           SKY/WX    TMP DP  RH WIND       PRES   REMARKS
COLCHESTER RF*   N/A     57  55  94 S17         N/A
DIAMOND ISL*     N/A     59  55  88 SW12        N/A

$$

NYZ007-026>031-035-052-083-087-251000-
_____NORTHERN NEW YORK_____


CITY           SKY/WX    TMP DP  RH WIND       PRES   REMARKS
PLATTSBURGH    PTCLDY    51  50  96 CALM      29.91R
SARANAC LAKE   CLEAR     42  37  82 SW3       29.98R
MASSENA        PTCLDY    59  44  57 SW9       29.93R
OGDENSBURG*    CLEAR     55  48  76 SW3       29.95R
POTSDAM*       CLEAR     57  46  67 SW6       29.95S
WATERTOWN      CLEAR     55  42  61 S6        29.98S
FT DRUM        PTCLDY    60  42  50 SW10      29.97R
ALBANY         PTCLDY    53  52  96 S5        30.00R FOG
GLENS FALLS    FOG       55  53  93 S5        29.98R VSB 3/4

$$
NHZ002-005-011-251000-
_____NEW HAMPSHIRE_____


CITY           SKY/WX    TMP DP  RH WIND       PRES   REMARKS
LEBANON        CLOUDY    55  53  93 SE3       29.96S FOG
KEENE          CLOUDY    52  52 100 CALM      29.99S
MT WASHINGTON  PTCLDY    45  43  93 NW35        N/A
PLYMOUTH       FOG       54  53  97 CALM      29.96S VSB 3/4
WHITEFIELD     FOG       50  48  93 CALM      29.96S VSB 1/2

$$

_____REGIONAL QUEBEC LOCATIONS_____


CITY           SKY/WX    TMP DP  RH WIND       PRES   REMARKS
MONTREAL       MOCLDY    59  46  63 SW12      29.87R
QUEBEC CITY    PTCLDY    54  48  82 N3        29.85R
SHERBROOKE     FOG       50  50 100 SE2       29.90S VSB 5/8

_____REGIONAL ONTARIO LOCATIONS_____


CITY           SKY/WX    TMP DP  RH WIND       PRES   REMARKS
OTTAWA         MOCLDY    61  43  51 W5        29.91R

______KEY______
VSB  - VISIBILITY IN MILES
WCI  - WIND CHILL INDEX
HX   - HEAT INDEX
$$
NNNN



USA.gov is the U.S. government's official web portal to all federal, state and local government web resources and services.